Location: Harwich
(41.7160°N, 69.9939°W)
Time: 08:41:18
(UTC+01:00)

X-37B - Pass Details

Date: 08 December 2022
Orbit: 277 x 277 km, 45.0° (Epoch: 01 November)

Event Time Altitude Azimuth Distance (km) Brightness Sun altitude
Rises 22:57:38 0° 228° (SW) 1,904 5.7 -8.9°
Reaches altitude 10° 22:59:38 10° 218° (SW) 1,095 3.9 -9.2°
Maximum altitude 23:01:52 32° 151° (SSE) 503 1.1 -9.6°
Enters shadow 23:03:29 15° 92° (E) 866 1.8 -9.9°
